Location: Congrier
(47.8099°N, 1.1170°W)
Time: 00:47:27
(UTC+00:00)

CZ-6A DEB - Pass Details

Date: 22 February 2024
Orbit: 823 x 838 km, 98.8° (Epoch: 24 April)

Event Time Altitude Azimuth Distance (km) Brightness Sun altitude
Rises 18:36:29 0° 198° (SSW) 3,381 ? -10.6°
Reaches altitude 10° 18:39:13 10° 211° (SSW) 2,453 ? -11.1°
Maximum altitude 18:43:43 26° 267° (W) 1,602 ? -11.8°
Drops below altitude 10° 18:48:14 10° 323° (NW) 2,468 ? -12.6°
Sets 18:51:01 0° 336° (NNW) 3,407 ? -13.0°
